Miscellaneous Local Product
Issued by NWS Hastings, NE

Home | Current Version | Previous Version | Graphics & Text | Print | Product List | Glossary On
Versions: 1 2 3 4 5 6 7 8 9 10 11 12 13 14 15 16 17 18 19 20 21 22 23 24 25 26 27 28 29 30 31 32 33 34 35 36 37 38 39 40 41 42 43 44 45 46 47 48 49 50
000
AXUS43 KGID 271502
MISGRI

GID CWA HOURLY WEATHER ROUNDUP
NATIONAL WEATHER SERVICE HASTINGS NE
1000 AM CDT FRI MAY 27 2016

NOTE: "FAIR" INDICATES FEW OR NO CLOUDS BELOW 12,000 FEET WITH NO
SIGNIFICANT WEATHER AND/OR OBSTRUCTIONS TO VISIBILITY.

...SOUTH CENTRAL NEBRASKA...

CITY           SKY/WX    TMP DP  RH WIND       PRES   REMARKS
GRAND ISLAND   CLOUDY    64  56  75 E7        29.77S
HASTINGS       LGT RAIN  60  57  89 E9        29.78R
KEARNEY        CLOUDY    63  55  77 NE9       29.79S
ORD            MOSUNNY   66  54  65 NW5       29.75F
YORK           PTSUNNY   64  59  82 NE12      29.77S
AURORA         CLOUDY    65  60  82 NE6       29.76S
LEXINGTON      CLOUDY    60  56  85 NE9       29.78S
HOLDREGE       CLOUDY    59  55  85 N6        29.78R
HEBRON         CLOUDY    63  59  87 NE6       29.77R

...NEBRASKA PANHANDLE...

CITY           SKY/WX    TMP DP  RH WIND       PRES   REMARKS
CHADRON        PTSUNNY   57  44  62 CALM      29.86S
ALLIANCE       LGT RAIN  50  48  93 NE10      29.86R FOG
SCOTTSBLUFF    CLOUDY    56  44  64 N12       29.87R
SIDNEY         RAIN      51  50  96 N13       29.85R FOG

...WESTERN AND NORTH CENTRAL NEBRASKA...

CITY           SKY/WX    TMP DP  RH WIND       PRES   REMARKS
VALENTINE      LGT RAIN  56  53  90 NW6       29.83S
AINSWORTH      CLOUDY    57  53  85 N10       29.83R
ONEILL         CLOUDY    64  58  81 S3        29.78F
BROKEN BOW     CLOUDY    64  52  64 N3        29.78F
IMPERIAL       CLOUDY    57  53  86 NE9       29.78R
NORTH PLATTE   CLOUDY    60  54  80 NW3       29.80R
MCCOOK         CLOUDY    59  54  83 E9        29.76R

...EASTERN NEBRASKA...

CITY           SKY/WX    TMP DP  RH WIND       PRES   REMARKS
NORFOLK        MOSUNNY   66  57  72 E6        29.76F
SO SIOUX CITY  CLOUDY    66  60  81 E3        29.77F
TEKAMAH        PTSUNNY   70  58  65 CALM      29.76F
COLUMBUS       PTSUNNY   66  54  63 E8        29.77F
ALBION         CLOUDY    66  56  70 NE5       29.76F
OMAHA EPPLEY   PTSUNNY   68  60  75 NE8       29.76S
OFFUTT AFB     MOSUNNY   69  62  78 NE7       29.75S
MILLARD        CLOUDY    68  60  75 E6        29.76R
LINCOLN        PTSUNNY   67  59  75 E7        29.78R
NEBRASKA CITY  MOSUNNY   66  62  85 NE6       29.76R
BEATRICE       CLOUDY    64  59  82 E5        29.76S
FALLS CITY     CLOUDY    67  62  84 CALM      29.73R

...NORTHERN KANSAS...

CITY           SKY/WX    TMP DP  RH WIND       PRES   REMARKS
GOODLAND       MOSUNNY   56  52  86 NE9       29.73S
HILL CITY      CLOUDY    58  56  93 NE7       29.74F
NORTON         CLOUDY    55  52  88 NE6       29.75R
PHILLIPSBURG   CLOUDY    61  59  94 NE6       29.76R
SMITH CENTER   CLOUDY    57  55  94 NE7       29.78R
BELOIT         CLOUDY    63  57  82 NE6       29.75R
HAYS           CLOUDY    34 N/A N/A SE9       29.72R WCI  26
RUSSELL        CLOUDY    62  58  86 SE8       29.71R
CONCORDIA      CLOUDY    61  58  90 E5        29.76R
SALINA         CLOUDY    66  60  81 SE8       29.73R
TOPEKA         CLOUDY    63  60  90 S3        29.76S



USA.gov is the U.S. government's official web portal to all federal, state and local government web resources and services.